Flag for Germany Weather past 2 weeks in Willich, North Rhine-Westphalia, Germany

Now
72 °F

Sunny.


Feels Like: 77 °F
Forecast: 65 / 90 °F
Wind: 2 mph from North

Location: Monchengladbach Airport

Current Time: Aug 2, 2015 at 11:03:50 AM

Latest Report: Aug 2, 2015 at 10:20 AM


Visibility: 10 mi

Pressure: 30.15 "Hg

Humidity: 50%

Dew point: 52 °F

Location of WillichLocation

Historic Weather in Willich — Graph

°F

Willich temperature yesterday

Maximum temperature yesterday: 77 °F (at 4:50 PM)
Minimum temperature yesterday: 57 °F (at 7:50 AM)
Average temperature yesterday: 70 °F

Past Weeks' High & Low Weather Summary

 TemperatureHumidityPressure
High79 °F (Jul 21, 5:20 PM)100% (Jul 20, 7:50 AM)30.15 "Hg (Jul 20, 7:50 AM)
Low54 °F (Jul 31, 8:20 AM)34% (Aug 1, 6:20 PM)29.50 "Hg (Jul 25, 7:50 AM)
Average67 °F66%29.89 "Hg
* Reported Jul 18 9:20 AM — Aug 2 9:50 AM, Willich, Weather by CustomWeather, © 2015

Note: Actual official high and low records may vary slightly from our data, if they occured in-between our weather recording intervals... More about our weather records

Advertising

Willich weather history for previous 24 hours

 ConditionsComfort  
Time TempWeatherWind HumidityBarometerVisibility
9:50 AM
Sun, Aug 2
68 °FSunny.2 mph60%30.12 "Hg10 mi
9:20 AM66 °FSunny.2 mph68%30.12 "Hg10 mi
8:50 AM63 °FSunny.1 mph77%30.12 "Hg10 mi
8:20 AM59 °FSunny.2 mph88%30.12 "Hg10 mi
7:50 AM55 °FSunny.2 mph100%30.12 "Hg10 mi
8:20 PM
Sat, Aug 1
72 °FClear.6 mph41%30.01 "Hg10 mi
7:50 PM73 °FClear.8 mph38%30.01 "Hg10 mi
7:20 PM75 °FPassing clouds.7 mph34%29.98 "HgN/A
6:50 PM75 °FPassing clouds.5 mph34%29.98 "HgN/A
6:20 PM75 °FClear.9 mph34%29.98 "Hg10 mi
5:50 PM75 °FPassing clouds.7 mph39%29.98 "HgN/A
5:20 PM73 °FPassing clouds.6 mph38%29.98 "HgN/A
4:50 PM77 °FPassing clouds.8 mph36%29.98 "HgN/A
4:20 PM75 °FPassing clouds.6 mph36%29.98 "HgN/A
3:50 PM75 °FPassing clouds.7 mph36%29.98 "HgN/A
3:20 PM75 °FClear.7 mph39%29.98 "Hg10 mi
2:50 PM75 °FPassing clouds.7 mph36%29.98 "HgN/A
2:20 PM73 °FPassing clouds.6 mph36%29.98 "HgN/A
1:50 PM73 °FClear.3 mph36%29.98 "Hg10 mi
1:20 PM72 °FPassing clouds.6 mph36%29.98 "HgN/A
12:50 PM72 °FSunny.5 mph38%29.98 "Hg10 mi
12:20 PM72 °FSunny.3 mph38%29.98 "Hg10 mi
11:50 AM70 °FPassing clouds.5 mph46%29.98 "HgN/A
11:20 AM68 °FSunny.3 mph43%29.98 "Hg10 mi
Weather by CustomWeather, © 2015

See weather overviewHow to use our weather pages